Location: Newark
(60.6561°N, 46.5772°E)
Time: 05:52:37
(UTC+00:00)

Altair - All Passes

Search period start: 22 October 2019 00:00
Search period end: 01 November 2019 00:00
Orbit: 1501 x 1682 km, 47.2° (Epoch: 20 October)

Date Brightness Start Highest point End Pass type
(mag) Time Alt. Az. Time Alt. Az. Time Alt. Az.
22 Oct - 05:46:54 10° SE 05:48:04 10° SE 05:49:14 10° ESE daylight
22 Oct - 07:42:26 10° SSW 07:49:48 26° SSE 07:57:24 10° E daylight
22 Oct - 09:44:00 10° SW 09:52:32 37° S 10:01:21 10° ESE daylight
22 Oct - 11:47:10 10° WSW 11:55:33 34° SSW 12:04:08 10° SE daylight
22 Oct - 13:51:41 10° W 13:58:00 19° SW 14:04:24 10° S visible
23 Oct - 07:17:36 10° SSW 07:24:48 25° SSE 07:32:11 10° E daylight
23 Oct - 09:19:00 10° SW 09:27:28 37° S 09:36:14 10° ESE daylight
23 Oct - 11:22:04 10° WSW 11:30:29 34° SSW 11:39:07 10° SE daylight
23 Oct - 13:26:26 10° W 13:32:59 20° SW 13:39:40 10° S daylight
24 Oct - 06:52:48 10° SSW 06:59:48 24° SE 07:06:58 10° E daylight
24 Oct - 08:54:00 10° SW 09:02:25 36° S 09:11:06 10° ESE daylight
24 Oct - 10:56:59 10° WSW 11:05:25 35° SSW 11:14:05 10° SE daylight
24 Oct - 13:01:12 10° W 13:08:00 21° SW 13:14:54 10° S daylight
25 Oct - 06:28:02 10° S 06:34:48 23° SE 06:41:44 10° E daylight
25 Oct - 08:29:01 10° SW 08:37:21 35° SSE 08:45:57 10° ESE daylight
25 Oct - 10:31:55 10° WSW 10:40:21 35° SSW 10:49:02 10° SE daylight
25 Oct - 12:36:00 10° W 12:42:59 23° SW 12:50:06 10° S daylight
26 Oct - 06:03:18 10° S 06:09:49 21° SE 06:16:29 10° E daylight
26 Oct - 08:04:02 10° SW 08:12:18 35° SSE 08:20:49 10° ESE daylight
26 Oct - 10:06:50 10° WSW 10:15:18 36° S 10:24:00 10° SE daylight
26 Oct - 12:10:48 10° W 12:17:58 24° SW 12:25:17 10° SSE daylight
27 Oct - 05:38:35 10° S 05:44:50 20° SE 05:51:13 10° E daylight
27 Oct - 07:39:04 10° SW 07:47:15 34° SSE 07:55:41 10° ESE daylight
27 Oct - 09:41:47 10° WSW 09:50:14 36° S 09:58:56 10° SE daylight
27 Oct - 11:45:38 10° W 11:52:57 25° SSW 12:00:26 10° SSE daylight
28 Oct - 05:13:55 10° S 05:19:51 19° SE 05:25:56 10° E daylight
28 Oct - 07:14:07 10° SW 07:22:12 33° SSE 07:30:33 10° ESE daylight
28 Oct - 09:16:43 10° WSW 09:25:10 37° S 09:33:53 10° SE daylight
28 Oct - 11:20:29 10° W 11:27:55 26° SSW 11:35:33 10° SSE daylight
28 Oct - 13:28:59 10° WSW 13:29:46 10° SW 13:30:33 10° SW daylight
29 Oct - 04:49:17 10° S 04:54:53 18° SE 05:00:36 10° E daylight
29 Oct - 06:49:11 10° SW 06:57:10 32° SSE 07:05:24 10° ESE daylight
29 Oct - 08:51:40 10° WSW 09:00:06 37° S 09:08:48 10° ESE daylight
29 Oct - 10:55:20 10° W 11:02:54 27° SSW 11:10:39 10° SSE daylight
29 Oct - 13:02:19 10° WSW 13:04:50 11° SW 13:07:22 10° SW daylight
30 Oct - 04:24:43 10° S 04:29:56 16° SE 04:35:15 10° E daylight
30 Oct - 06:24:15 10° SW 06:32:08 31° SSE 06:40:15 10° ESE daylight
30 Oct - 08:26:38 10° WSW 08:35:02 37° S 08:43:44 10° ESE daylight
30 Oct - 10:30:13 10° W 10:37:52 28° SSW 10:45:44 10° SSE daylight
30 Oct - 12:36:28 10° WSW 12:39:53 12° SW 12:43:19 10° SSW daylight
31 Oct - 04:00:12 10° SSE 04:04:59 15° SE 04:09:50 10° ESE daylight
31 Oct - 05:59:20 10° SSW 06:07:06 30° SSE 06:15:06 10° ESE daylight
31 Oct - 08:01:36 10° WSW 08:09:59 37° S 08:18:39 10° ESE daylight
31 Oct - 10:05:06 10° W 10:12:50 29° SSW 10:20:48 10° SSE daylight
31 Oct - 12:10:51 10° WSW 12:14:56 13° SW 12:19:02 10° SSW daylight
